COSMOS 2251 DEB, 36074

Orbit data source: Space-Track

COSMOS 2251 DEB, 36074 is space debris in LEO originally from a launch on Wed, 16 Jun 1993 UTC launched from the Plesetsk Missile And Space Complex (PKMTR). The debris from Iridium 33, an American commercial communications satellite, has been tracked extensively since its accidental collision with the defunct Russian satellite Cosmos 2251 in 2009. This event, occurring at high speed in low Earth orbit (LEO), generated thousands of pieces of space debris, significantly increasing the risk of further collisions. The Iridium 33 debris cloud has impacted space traffic management and orbital debris mitigation strategies, making it a subject of ongoing study in space situational awareness.

Loading next visibility...
Identifier
36074, 1993-036AYM
Orbit
LEO
Country
Flag of CISCIS
Related business
Manufacturer
Unknown
Mission
Spacecraft
Bus & Motor
Unknown
Mass
Unknown
Launch date (UTC)
1993-06-16 (33 years ago)
Launch vehicle
Unknown
Launch site
Plesetsk Missile And Space Complex (PKMTR)
Object type
Payload
Rocket body
Debris
Shape & HBR
Unknown shape, 0.1 m
Radar Cross Section
Small (<0.1 m²)

Expand to show TLE details & history
Last TLE update: 10 hours ago

TLE from 10 hours ago
0 COSMOS 2251 DEB
1 36074U 93036AYM 26035.53233379  .00003243  00000-0  94063-3 0  9999
2 36074  73.9901 240.1732 0043767 320.4659  39.3307 14.44239654866867
Epoch: 2026-02-04T12:46Z
TLE epoch observation values (Epoch: 2026-02-04T12:46:33.639Z)
Latitude
-0.00005°
Longitude
-86.16454°
Altitude
723.082 km
Speed
7.507 km/s
True Right ascension
16h 00m 41s
True Declination
0° 00' 00"
Sunlit
Object was in daylight at epoch
Visualization orbit readout
Latitude
Unknown
Longitude
Unknown
Altitude
Unknown
Speed
Unknown
Apparent Right ascension
Unknown
Apparent Declination
Unknown
Sunlit
N/A
Visualization observer readout
Local Sidereal Time
00:57:33
Azimuth
Unknown
Elevation
Unknown
Doppler factor
Unknown
Orbital elements
Apogee altitude
773.307 km
Perigee altitude
710.98 km
Semi-major axis
7,120.281 km
Eccentricity
0.00438
Inclination
73.9901°
RAAN
240.1732°
Arg. of periapsis
320.4659°
True anomaly
39.64992°
Mean anomaly
39.3307°
Eccentric anomaly
39.49017°
Mean motion
3.61241 °/min
Orbital period
99.66 mins
BSTAR
0.00094063
Loading maneuver chart data...
Computing Atmospheric mass density...

Documentation

Showing up to 5 results
|